Wind_Speed
3 2 2 4 6 7 6 6 8 8 6 4 2 1 5 7 6 6 7 9 5 8 5 8 9 7 8 8 6 5 3 8 7 4 4 6 8 8 8 7 7 8 7 9 13 16 19 20 24 25 27 29 28 29 30 29 28 28 28 28 27 27 27 26 23 18 21 25 22 20 22 21 19 19 18 19 21 23 23 24 24 21 21 23 23 23
4 4 7 8 9 9 8 7 8 7 5 5 4 2 6 7 6 7 7 8 1 6 3 5 6 5 7 7 6 3 2 3 9 10 6 7 9 8 8 9 8 7 5 8 10 15 20 22 25 26 27 29 27 27 28 28 27 27 28 29 28 28 26 24 25 25 25 26 24 21 21 19 17 18 17 17 20 22 23 23 23 21 21 23 24 23
2 5 11 10 8 7 7 7 7 6 5 5 3 1 5 5 4 6 5 7 5 4 2 3 6 5 7 6 7 4 1 1 4 10 12 12 11 9 10 10 8 7 7 7 8 12 18 23 26 25 25 26 27 27 28 28 27 27 27 28 27 27 25 23 26 28 25 24 25 22 21 21 21 21 19 17 18 20 22 22 22 22 22 22 23 23
4 7 12 10 7 7 7 7 6 4 4 4 3 2 4 4 1 4 5 8 7 2 3 5 4 3 6 5 7 6 3 4 5 2 9 11 10 10 10 9 10 11 10 10 8 9 14 21 23 23 24 25 26 27 27 27 27 27 27 27 27 25 25 24 26 28 22 20 22 19 18 21 22 21 20 18 17 19 22 22 22 23 23 23 22 22
7 7 6 7 7 8 7 7 5 4 4 4 5 5 4 4 3 5 3 6 7 4 2 6 5 4 5 6 7 6 7 9 10 8 3 1 3 4 2 1 4 6 8 10 10 10 11 16 20 22 24 24 23 25 25 25 26 27 27 27 27 25 25 24 26 28 22 18 21 19 18 19 18 17 18 18 18 20 22 23 23 23 23 23 22 22
10 7 5 6 8 8 7 7 6 6 4 4 5 7 7 5 4 5 3 5 6 5 3 4 4 5 5 5 7 5 9 11 11 12 10 8 5 1 2 3 3 3 4 6 8 10 10 12 17 19 21 22 22 22 23 24 24 25 25 26 26 26 26 25 25 29 26 22 24 23 21 22 20 19 21 22 23 23 24 24 24 24 23 23 23 22
6 5 6 8 8 8 8 7 5 7 5 3 6 7 6 3 2 4 3 5 3 2 4 3 5 2 5 6 5 5 10 11 11 12 11 10 9 6 3 2 6 7 6 6 7 8 9 11 13 15 19 21 21 21 22 23 23 24 24 25 26 26 26 26 27 31 30 27 27 27 27 28 26 24 25 26 25 25 24 23 23 24 24 23 22 21
5 6 7 8 8 7 7 6 6 8 7 4 6 5 3 2 3 5 1 4 3 2 4 5 4 3 2 4 5 8 12 12 13 12 12 12 12 11 9 5 3 7 7 8 9 9 9 9 8 8 11 12 14 19 23 25 25 26 26 26 26 27 28 28 28 31 31 29 30 30 29 29 29 29 29 27 24 23 23 23 23 24 24 23 22 20
4 7 9 9 8 6 6 8 9 9 6 6 7 6 4 4 3 4 1 4 2 2 3 7 2 4 2 5 6 7 12 12 11 11 12 13 13 13 12 10 7 5 4 4 3 2 2 4 5 3 2 5 9 16 22 25 27 29 30 31 30 29 30 30 30 32 31 31 33 32 31 30 30 31 29 27 25 23 25 24 23 24 24 23 21 20
4 7 8 8 6 6 8 9 9 10 5 6 5 4 2 1 1 3 3 4 3 4 2 7 1 3 2 5 7 6 8 7 6 8 9 11 13 13 13 13 11 10 8 8 8 7 9 12 11 6 3 6 7 14 24 26 27 30 32 33 34 33 32 32 32 33 32 33 34 33 33 31 30 29 27 25 25 25 26 25 24 24 24 23 21 20
6 5 4 5 6 8 9 7 8 10 7 3 3 2 1 4 4 4 3 4 4 2 5 6 2 6 2 5 6 4 5 3 4 6 8 10 12 12 12 12 12 11 9 9 10 10 12 16 15 11 8 7 5 6 22 28 27 28 28 28 30 32 34 33 33 34 33 33 35 33 33 33 30 28 27 25 25 26 26 25 25 25 23 23 22 20
5 5 4 4 5 6 6 3 2 3 5 5 4 1 0 4 4 3 5 4 4 2 7 6 2 8 4 2 4 6 6 6 7 7 8 10 11 11 11 11 11 10 10 9 9 9 11 14 15 15 15 13 11 7 4 14 22 26 25 25 27 31 34 34 33 33 32 33 34 33 32 33 31 28 28 28 27 27 27 26 25 24 21 21 21 20
4 5 5 4 3 4 7 2 3 4 5 5 5 4 3 1 2 1 3 1 2 4 5 3 3 6 4 2 4 7 8 8 8 8 8 9 10 11 10 10 10 9 10 10 8 8 8 9 11 13 15 11 8 9 8 5 21 28 25 24 28 31 33 34 33 32 31 32 33 32 32 31 31 29 28 29 29 29 29 28 26 24 22 21 22 20
4 5 4 2 3 1 7 6 1 0 2 4 5 4 5 3 2 1 3 0 1 5 4 2 3 4 3 3 6 8 8 8 8 8 8 9 10 10 10 10 10 10 11 9 8 9 7 7 9 10 14 12 10 12 9 16 28 26 17 17 22 28 30 32 33 32 30 30 30 30 31 30 29 27 25 26 28 29 29 29 27 26 24 24 24 23
2 4 3 4 3 1 5 7 6 5 3 4 5 5 5 4 4 3 2 2 3 4 4 3 2 3 4 3 6 7 7 7 8 8 8 10 10 9 10 13 13 13 12 10 11 11 11 11 11 8 11 10 6 6 7 17 20 11 5 7 11 17 23 25 28 30 29 29 29 28 28 28 26 24 23 23 25 28 30 29 28 26 24 25 26 25
4 4 7 5 4 5 6 5 5 7 2 3 3 5 2 4 5 3 3 5 4 1 2 1 2 1 4 5 5 6 8 8 8 9 11 11 9 9 11 12 12 12 12 12 13 14 15 18 17 13 7 3 4 4 6 12 12 9 7 5 6 6 9 13 16 19 19 18 21 24 26 26 24 25 26 25 25 27 30 29 28 26 25 25 26 25
3 4 7 1 4 6 8 6 5 6 4 1 2 2 3 5 8 4 2 1 4 2 2 1 3 1 3 4 4 7 8 8 8 10 10 9 9 10 10 10 10 10 10 11 11 11 14 18 19 18 14 8 3 1 2 5 8 9 7 5 4 4 8 12 12 12 12 10 12 17 21 22 22 25 28 27 26 28 29 29 28 27 26 26 26 26
4 3 7 2 4 6 6 7 5 5 6 4 2 5 1 4 4 4 2 1 4 2 4 2 5 3 2 1 3 7 8 7 8 10 9 8 9 10 10 10 10 10 9 9 9 9 12 16 18 19 20 17 11 9 6 3 6 9 10 9 8 10 14 16 13 15 19 19 19 19 20 21 21 23 26 27 28 28 28 29 29 29 28 28 27 25
4 1 7 2 4 4 1 6 2 2 1 4 5 4 4 3 1 1 3 2 2 3 1 3 3 1 1 1 2 7 7 6 8 10 10 10 10 9 9 9 10 10 9 8 8 7 9 13 17 18 21 22 19 17 12 6 6 8 10 12 13 14 15 16 18 21 25 26 27 26 24 24 23 23 25 26 28 29 29 31 32 32 31 30 27 25
2 2 4 5 1 2 3 3 3 4 4 1 1 1 1 3 4 2 3 4 4 3 2 2 2 1 1 2 4 6 5 6 8 9 9 10 9 9 8 8 8 9 8 7 7 7 8 12 17 18 20 23 22 22 20 15 9 7 8 11 12 12 13 17 21 21 20 20 22 24 25 26 25 25 25 26 29 30 30 30 32 33 33 31 28 27
1 2 3 6 5 3 3 2 3 4 2 1 1 1 3 2 1 2 1 2 4 4 3 3 1 2 1 2 4 6 6 7 9 8 8 9 10 11 10 9 8 8 8 8 7 7 8 12 16 18 20 22 23 23 23 21 18 13 10 10 10 9 11 15 17 16 16 18 20 22 24 26 27 28 28 31 32 25 19 21 27 31 34 32 30 28
2 2 2 2 3 5 6 6 6 6 6 5 3 2 1 1 2 3 1 2 2 4 4 5 3 2 1 2 5 6 8 8 8 8 9 10 11 11 10 9 9 8 8 8 8 6 8 11 15 18 21 23 23 22 21 21 21 20 17 14 10 8 9 12 13 14 17 19 20 22 23 24 27 29 30 32 30 20 15 20 25 29 34 33 31 29
3 4 4 1 2 7 9 10 11 10 9 9 6 2 1 2 3 5 3 3 2 3 2 4 3 1 1 3 6 8 9 9 10 9 10 10 11 11 10 9 8 8 8 8 7 8 10 13 15 18 21 22 21 21 22 21 22 21 20 19 16 12 11 11 12 14 16 16 17 20 21 22 25 28 30 31 26 21 21 23 24 29 34 33 31 30
2 3 3 1 1 4 6 8 11 10 7 7 5 4 3 2 1 4 4 3 3 2 1 4 3 2 1 4 7 9 10 11 10 10 10 10 9 9 8 8 8 8 9 8 8 11 15 18 19 20 21 21 20 21 21 21 21 21 21 22 20 17 15 13 14 14 15 16 16 17 18 19 23 27 29 26 20 20 22 21 21 27 32 33 31 30
1 2 3 3 1 1 2 3 6 8 6 4 3 5 5 5 3 2 1 3 4 2 2 5 2 2 1 6 8 9 10 11 10 10 10 9 8 8 7 6 7 7 8 11 12 13 16 18 20 21 21 21 21 22 21 21 21 19 20 23 23 20 18 15 15 14 14 17 17 16 16 18 22 25 26 21 15 19 23 22 22 24 29 32 31 28
3 2 2 4 4 4 3 2 2 2 3 2 3 7 7 7 5 1 1 3 3 1 2 4 3 4 5 8 9 9 10 10 10 9 9 8 8 8 7 7 7 7 9 12 13 13 14 15 18 20 21 21 22 22 22 21 21 20 20 24 25 22 20 17 13 10 12 18 20 19 19 19 20 23 23 18 14 20 24 25 26 25 26 30 29 27
4 3 3 5 5 4 5 3 2 2 4 3 4 8 8 7 5 3 3 2 3 3 3 2 5 7 7 8 9 9 9 10 9 9 8 8 8 8 8 8 9 9 10 12 12 12 13 14 17 21 22 21 21 22 22 22 23 23 23 26 29 25 21 17 9 7 13 18 21 19 18 19 20 23 23 17 15 22 25 27 29 27 25 26 27 27
5 3 4 7 8 5 5 5 5 7 7 6 6 8 10 9 8 7 4 1 4 5 2 1 6 8 6 7 8 8 8 9 8 8 7 7 8 8 8 9 11 11 11 11 12 12 13 13 15 20 22 22 22 23 23 23 25 26 26 28 30 28 24 19 11 10 14 18 20 17 15 17 19 21 23 19 19 25 28 28 29 28 26 26 26 26
6 2 3 6 10 9 8 9 11 12 10 9 10 10 10 11 11 9 6 3 3 4 4 7 10 8 5 7 8 7 8 8 7 7 7 7 8 8 9 10 11 12 12 12 11 11 11 11 13 17 19 21 22 23 23 24 26 27 28 29 30 29 25 21 16 12 11 15 21 22 17 17 19 19 21 23 24 27 28 25 27 29 27 27 27 26
5 3 2 6 11 10 9 9 11 12 11 11 12 11 10 11 12 10 9 8 9 9 8 12 13 9 5 6 7 7 7 7 6 7 7 9 9 9 9 11 11 11 11 11 11 10 10 11 13 15 17 19 21 22 22 23 24 26 29 29 29 28 26 22 19 16 12 10 16 22 22 20 20 19 20 25 27 28 26 24 28 29 26 28 29 27
4 2 2 4 7 5 7 9 10 12 14 13 12 10 8 9 10 10 8 8 9 10 10 12 11 7 4 5 7 7 6 7 8 8 8 9 9 9 10 10 10 10 11 11 11 10 10 12 14 15 16 18 19 20 21 21 23 26 28 29 27 27 26 25 23 20 17 13 10 15 22 21 21 19 19 25 29 28 27 26 29 29 24 27 31 28
4 3 2 4 5 2 3 8 9 11 13 13 12 11 10 8 7 7 6 6 5 6 8 7 6 4 3 4 6 7 8 9 9 8 8 8 9 10 10 10 10 10 10 10 11 11 11 12 15 16 17 18 19 20 20 20 22 25 26 27 26 26 26 26 26 25 22 19 13 7 14 18 22 21 19 25 29 28 26 26 28 28 26 30 32 29
4 5 3 3 4 4 3 3 3 5 7 6 6 5 5 6 7 7 8 9 7 4 3 4 3 3 4 4 6 7 9 9 8 8 8 7 8 9 8 8 9 9 9 9 10 11 11 12 14 17 17 18 19 19 19 19 20 22 22 24 25 25 26 27 28 29 27 24 20 12 5 10 23 25 22 25 29 26 24 26 28 28 29 32 32 31
3 5 5 3 3 5 6 3 2 4 3 2 4 2 3 6 9 10 8 9 9 6 5 5 5 5 5 5 6 7 8 8 8 8 8 7 6 7 7 7 8 8 8 9 9 9 11 12 15 17 18 19 19 19 19 20 19 19 21 24 26 27 27 27 28 31 31 29 26 20 12 4 16 25 25 26 28 26 26 27 29 29 31 34 34 33
4 4 3 2 3 4 4 2 3 2 1 1 2 5 8 9 12 14 11 10 9 8 7 7 7 7 7 7 7 8 9 9 9 9 9 8 6 5 6 6 7 7 7 8 8 10 12 14 15 17 18 19 19 19 20 21 20 20 23 26 28 29 29 29 29 31 32 32 31 27 21 15 9 15 24 28 28 27 28 29 30 30 31 34 35 34
4 3 3 3 3 3 2 2 2 3 3 3 3 4 6 6 6 8 9 9 8 6 5 7 7 8 8 8 7 7 8 8 8 8 8 7 6 6 6 5 5 7 7 7 9 11 13 15 15 16 17 18 19 20 21 21 20 21 24 26 28 29 30 31 31 31 31 32 34 32 28 23 17 12 17 28 30 28 28 29 30 32 34 34 34 33
5 3 3 3 3 3 3 3 3 4 4 3 1 1 2 0 1 2 4 4 5 6 3 6 8 8 8 8 8 7 6 7 7 7 7 7 6 6 6 6 6 8 9 10 11 12 14 15 15 16 16 18 19 20 20 20 20 21 24 26 28 29 29 31 32 30 30 31 32 34 33 29 23 17 14 26 31 28 28 28 27 30 34 36 34 33
6 3 4 3 2 2 4 4 4 3 3 2 1 1 2 2 1 2 4 3 3 5 3 4 7 7 7 7 7 6 3 5 5 4 6 7 7 7 7 8 10 11 12 12 13 13 14 15 15 17 18 19 20 20 20 20 19 21 24 26 26 27 28 29 29 28 28 29 29 32 34 33 30 23 17 23 30 28 28 28 25 26 32 36 35 34
8 4 4 5 3 2 4 4 3 2 2 2 1 2 4 4 1 2 2 2 1 4 3 4 5 4 5 4 4 4 2 3 3 3 4 5 6 7 7 8 11 13 13 13 14 13 14 14 15 17 19 19 20 20 20 20 21 23 24 25 25 26 27 27 26 26 26 26 27 30 33 34 33 28 23 23 28 29 29 28 27 27 30 33 34 33
7 4 4 5 3 3 4 3 2 1 1 1 1 3 5 4 1 2 1 1 2 2 3 4 4 2 2 2 1 1 2 3 4 3 3 4 7 9 9 10 12 13 13 14 14 13 14 15 16 17 18 19 19 20 21 21 23 24 24 24 25 26 26 24 23 24 25 25 26 29 32 34 34 31 29 28 28 29 30 29 28 28 29 30 32 32
4 3 3 4 4 4 4 3 2 1 0 1 2 4 4 2 1 2 1 1 3 4 4 5 5 3 3 4 4 4 5 5 5 4 4 6 7 9 11 13 14 15 16 16 15 14 15 15 16 16 16 17 18 19 21 22 23 24 23 24 26 26 24 22 21 23 25 27 28 29 30 33 32 30 30 29 30 31 30 29 28 27 26 27 29 32
2 2 3 2 2 2 3 3 2 1 0 1 2 3 2 0 2 2 2 3 5 5 5 6 6 6 7 7 7 7 7 7 7 6 6 6 6 7 11 14 15 16 17 17 17 17 16 16 17 17 16 16 17 18 19 21 22 23 23 24 24 25 25 24 23 23 25 27 29 30 30 32 32 30 28 28 28 29 27 26 25 26 25 25 26 30
1 1 1 2 1 2 3 3 2 1 1 3 2 2 2 1 3 4 5 5 5 6 5 5 6 6 7 9 9 8 8 7 7 6 5 5 5 7 9 11 12 13 15 16 17 17 17 17 17 18 16 15 15 16 18 20 21 21 22 23 22 22 24 25 26 25 26 27 28 29 29 29 30 30 29 27 26 26 24 22 21 21 22 22 23 26
1 0 2 1 1 1 3 2 1 0 3 3 2 2 3 4 5 5 6 6 5 5 4 4 5 6 7 8 8 8 7 7 6 5 4 4 5 7 9 10 11 12 13 14 15 16 17 18 18 17 16 15 14 15 16 17 18 18 19 20 20 20 20 22 23 25 26 26 26 26 27 26 25 25 26 25 24 24 24 22 20 19 17 16 17 19
2 2 3 2 2 3 3 3 3 3 4 6 7 7 7 8 7 6 7 6 5 4 4 5 6 6 6 7 7 6 6 5 5 4 4 4 4 6 7 8 9 10 11 13 14 14 16 17 17 17 16 16 16 15 14 14 15 15 15 15 16 17 18 19 20 21 23 24 24 23 23 23 23 23 23 23 22 22 22 20 19 20 18 16 16 17
2 3 4 4 6 7 7 6 6 7 8 9 8 7 9 9 7 6 7 6 5 5 4 5 6 6 5 6 6 5 5 5 5 4 4 4 4 4 5 6 7 7 8 10 11 12 13 15 16 16 17 18 18 16 15 14 13 12 13 13 13 13 13 15 16 17 17 19 21 22 21 21 20 20 20 21 22 22 21 19 18 19 19 18 17 18
1 3 4 4 5 4 5 5 6 8 9 9 8 8 9 9 7 6 6 7 7 7 6 6 6 6 6 6 6 5 5 5 5 4 3 4 4 4 3 3 3 4 5 6 8 9 11 12 14 15 16 17 19 18 16 15 14 13 11 11 13 14 12 12 13 14 13 13 15 18 21 21 19 18 17 17 18 19 19 19 20 20 21 20 19 18
1 2 4 5 4 4 6 7 6 7 7 7 7 7 7 8 8 6 7 8 8 9 9 10 9 7 6 6 6 6 5 5 5 4 3 3 4 4 2 1 0 1 2 3 4 6 8 9 10 12 14 15 18 19 17 15 17 16 12 9 11 13 13 13 13 14 14 13 10 11 14 17 18 17 16 16 15 16 17 17 16 17 19 20 19 18
3 3 4 6 7 7 6 7 7 7 7 5 6 6 6 6 8 7 7 7 8 7 8 9 10 9 8 8 7 6 5 5 5 6 4 4 4 3 3 3 3 2 2 2 2 4 5 6 6 8 9 10 13 16 16 15 16 17 14 12 11 11 12 13 13 14 15 15 12 8 6 9 14 16 16 16 15 15 15 15 13 13 15 16 16 16
5 5 5 7 8 6 5 7 7 6 5 4 5 7 7 6 8 8 7 6 6 6 6 6 6 7 8 10 10 8 5 4 6 7 6 5 4 4 3 3 4 4 4 3 3 3 2 3 4 4 5 6 8 10 12 13 14 15 14 14 13 12 12 13 12 12 13 14 14 12 6 4 8 12 14 15 15 14 15 14 14 13 14 15 15 15
5 6 5 5 6 7 9 9 6 5 6 6 7 7 7 7 8 8 8 7 7 8 9 7 5 4 5 7 10 9 7 7 8 8 7 6 5 5 4 4 4 4 5 5 5 5 5 4 3 3 3 4 5 7 9 10 11 11 11 12 13 13 14 14 13 12 13 14 14 14 13 8 6 7 9 11 13 14 14 14 14 14 15 15 15 14
Wind_Direction
134 135 220 203 210 210 211 185 190 224 217 221 262 330 290 286 281 268 276 276 191 152 188 179 178 218 260 281 271 280 39 101 134 171 213 195 183 190 188 179 175 180 177 171 174 168 166 166 165 170 174 176 179 182 181 178 179 178 175 172 169 176 188 189 186 183 190 196 194 197 202 201 201 204 203 204 209 209 206 203 199 198 196 195 197 198
114 174 227 217 209 204 206 202 203 230 240 245 253 285 291 282 278 277 286 295 167 124 203 184 154 207 251 273 257 235 43 104 155 164 195 205 198 197 184 184 175 166 160 153 162 159 157 160 164 170 175 177 177 177 177 176 175 175 173 171 170 177 182 183 188 190 192 196 194 194 197 195 196 202 203 203 209 210 206 203 198 196 196 196 199 200
144 218 234 222 204 200 214 215 203 222 237 240 236 239 275 270 289 293 300 333 14 91 199 163 137 215 251 272 282 288 354 262 182 169 185 191 195 199 189 185 166 153 161 160 161 158 156 161 166 170 175 178 177 174 175 176 174 173 171 170 172 177 178 182 192 189 183 192 198 196 196 195 195 199 201 204 212 212 207 205 200 198 197 196 198 199
192 232 232 218 189 189 225 234 207 223 250 237 206 185 259 264 298 286 305 351 5 71 154 135 124 265 295 321 308 313 9 7 358 159 190 191 191 200 198 186 169 164 169 168 165 162 161 165 169 172 177 179 177 175 176 174 171 169 170 172 174 175 177 184 192 188 178 183 194 199 198 195 194 196 198 202 211 211 207 205 202 201 201 200 198 196
233 242 211 199 194 188 217 241 206 198 255 249 206 185 227 244 206 232 282 360 358 359 86 93 52 323 327 347 311 311 18 27 18 36 62 256 215 212 228 166 169 164 165 169 169 168 170 173 176 177 177 179 179 178 176 172 169 169 171 175 175 173 176 184 191 188 180 177 188 196 194 190 190 193 196 200 207 209 206 206 205 204 204 204 201 196
249 244 148 179 213 196 209 240 205 178 214 258 230 200 202 211 227 260 331 39 30 350 333 89 67 305 314 334 297 317 31 34 24 30 29 5 352 290 205 146 117 91 122 159 166 170 175 178 179 178 177 181 183 181 174 170 170 170 171 174 175 173 177 184 188 187 185 185 188 188 185 186 187 190 197 202 206 206 204 206 208 207 206 206 205 200
243 212 162 191 214 203 214 239 208 167 165 227 236 205 195 214 271 298 357 65 92 263 301 73 115 249 313 326 311 30 52 39 29 26 18 9 7 358 313 196 148 134 136 145 154 168 177 182 182 181 183 185 183 177 170 168 169 169 172 177 178 178 179 181 183 186 186 186 187 187 189 192 190 193 201 204 206 206 204 206 208 208 206 206 207 204
211 192 191 201 207 205 216 238 211 168 153 218 234 185 179 275 290 288 21 108 173 213 334 3 100 131 317 311 330 47 60 37 26 22 13 12 11 9 2 354 139 145 152 156 164 176 180 180 176 177 188 188 179 173 169 166 168 172 177 183 186 186 184 183 185 187 188 186 185 187 191 194 196 202 205 201 200 202 205 211 210 206 204 204 208 207
200 193 204 196 196 200 211 226 202 164 159 228 221 178 194 224 244 286 47 119 162 92 341 312 48 98 286 302 334 34 58 39 22 13 10 14 11 13 19 21 41 71 80 101 124 146 104 75 75 80 159 167 164 168 168 167 171 179 184 186 189 189 187 188 191 191 191 191 188 187 189 195 200 207 207 198 193 196 203 212 210 204 202 201 205 208
229 206 201 179 177 197 213 220 184 154 180 227 190 149 147 137 90 351 61 105 59 64 244 275 6 103 292 331 346 19 49 37 19 10 9 18 18 18 23 28 35 39 41 42 36 33 36 48 60 60 107 150 161 167 167 170 178 186 189 187 186 186 186 190 194 194 194 193 191 189 190 194 199 205 206 197 189 192 199 208 207 202 201 201 202 204
250 242 217 172 181 197 198 199 172 161 173 163 121 120 34 26 35 33 44 78 54 16 249 258 74 100 78 344 350 16 37 37 49 35 19 19 22 24 26 29 33 35 40 40 37 35 33 44 54 60 77 73 37 146 166 170 181 192 192 187 182 182 186 191 193 194 196 196 194 193 194 196 198 201 201 194 190 192 196 203 205 201 202 203 201 199
281 271 258 216 196 172 148 163 184 142 125 105 93 125 313 344 9 26 358 38 77 284 265 262 82 88 90 352 10 43 50 48 56 50 33 24 19 21 24 27 29 30 34 35 35 30 27 34 41 50 62 53 32 37 127 160 177 195 197 188 183 183 187 191 194 195 197 198 198 197 197 199 201 203 200 194 193 193 195 199 201 199 202 205 203 199
311 249 250 265 230 145 121 104 350 30 61 87 93 97 115 325 11 20 307 7 147 242 255 229 114 83 91 98 59 62 63 54 57 56 44 34 25 21 21 24 28 29 31 30 29 26 23 28 33 50 65 58 64 69 42 132 184 203 203 188 186 187 188 191 194 198 199 201 203 201 201 202 205 209 206 200 198 196 196 197 197 197 199 202 205 202
315 291 283 266 282 177 129 124 142 226 92 123 139 130 137 136 90 203 263 25 236 262 264 220 123 108 128 94 66 72 73 61 61 58 51 48 41 33 26 27 31 32 32 27 24 24 19 22 28 60 81 64 63 92 121 179 194 209 209 195 193 191 191 192 193 198 201 204 206 205 205 206 206 209 210 206 203 200 198 198 196 196 198 199 200 197
190 304 279 196 230 253 141 147 163 158 140 164 165 137 141 150 138 178 207 157 211 265 301 319 81 129 164 119 80 88 82 67 63 56 57 57 50 46 39 34 32 29 28 24 21 22 16 18 20 44 92 91 86 106 167 205 215 238 264 240 227 205 199 198 195 198 200 204 208 207 208 211 207 205 209 214 211 204 201 199 196 196 197 197 195 191
157 235 254 213 186 166 151 171 150 117 135 226 132 101 149 179 151 148 173 165 169 183 345 2 55 93 142 123 93 88 75 63 65 59 58 55 46 51 50 44 39 32 27 23 18 17 13 13 14 16 45 107 185 191 233 247 262 302 331 301 281 265 228 214 205 204 203 207 213 213 213 213 209 204 207 215 214 207 204 200 196 195 195 195 192 187
136 244 271 215 157 181 167 172 159 136 171 227 105 159 220 163 138 133 187 141 100 130 267 95 108 105 114 98 51 57 62 55 64 66 61 53 45 50 52 48 45 41 35 30 22 17 11 10 9 8 7 358 335 300 241 261 283 285 290 297 295 290 249 226 218 211 205 209 222 226 223 216 209 206 207 212 212 208 206 202 197 195 194 191 187 185
152 260 285 158 164 227 189 151 156 157 144 117 159 211 175 98 110 109 139 26 65 160 265 19 117 151 152 155 7 40 48 45 62 71 67 58 51 51 53 51 47 45 40 31 26 22 15 10 6 6 9 14 24 36 65 62 313 281 265 262 242 232 229 220 211 207 209 212 215 221 226 222 215 209 208 210 210 209 207 202 196 193 191 187 184 185
142 240 290 249 167 219 149 98 84 306 109 134 180 188 124 121 229 51 138 142 107 167 264 26 68 125 156 227 4 35 36 40 59 64 61 56 52 49 50 49 45 43 35 22 19 19 16 10 5 5 10 15 23 30 41 42 334 295 267 257 246 246 248 236 223 217 216 215 212 213 216 219 220 216 212 211 209 209 208 203 195 190 188 185 184 185
120 115 284 297 315 140 78 85 176 260 303 354 157 199 112 140 166 180 169 152 145 180 178 74 37 325 257 324 30 45 32 45 59 59 57 54 54 50 45 43 39 37 27 12 10 9 8 7 2 4 12 14 17 22 27 27 8 325 291 281 276 278 270 252 240 231 225 218 211 210 213 217 221 221 218 215 212 212 211 204 194 186 182 181 182 182
70 109 233 296 340 67 56 353 196 188 205 199 101 22 339 341 141 152 160 138 136 157 158 126 139 261 270 10 59 66 54 60 67 68 62 54 56 56 47 42 39 34 23 6 3 1 1 2 358 3 14 17 16 18 20 21 18 9 350 324 302 287 267 255 249 245 243 233 218 212 214 219 221 221 222 218 216 218 217 207 196 186 180 178 178 179
124 146 186 301 16 81 76 36 43 72 96 106 103 104 174 233 140 127 193 302 81 125 153 143 158 236 335 72 80 66 58 58 55 63 67 53 50 52 45 40 35 31 21 5 356 354 359 3 3 6 14 18 17 14 14 16 17 16 12 4 345 311 284 276 268 257 251 240 225 218 218 221 222 223 224 221 218 220 218 211 204 191 181 177 177 177
126 111 107 76 79 103 93 69 56 55 73 82 65 42 100 109 99 119 184 254 50 73 101 101 112 233 280 90 87 71 61 52 37 42 61 56 48 46 40 34 29 25 18 3 353 354 1 7 11 13 14 16 14 10 10 13 13 12 11 10 6 354 337 324 310 286 265 246 228 222 222 223 223 225 225 223 218 215 213 214 211 197 182 175 175 176
61 83 95 85 9 79 76 61 48 34 48 70 41 12 29 7 77 134 168 179 90 44 57 87 84 258 279 78 83 74 64 57 40 32 46 53 47 40 34 28 23 17 9 3 4 5 3 5 11 13 12 10 9 7 6 9 11 11 10 9 7 360 351 344 338 322 288 262 243 232 227 223 225 226 224 221 215 206 208 213 211 196 179 170 171 171
49 61 93 102 83 43 21 20 23 14 23 65 22 352 359 358 18 96 117 82 68 21 111 117 142 236 115 76 74 68 62 59 45 35 41 47 43 31 25 25 21 15 9 9 14 12 6 4 7 8 7 5 4 3 2 5 8 9 10 12 9 357 348 349 351 339 300 267 252 242 232 222 223 225 222 219 209 196 200 201 196 188 174 167 168 168
95 69 102 128 157 173 160 188 240 327 21 50 20 5 4 2 14 69 102 67 78 26 68 101 153 157 102 75 65 59 59 56 44 38 39 41 42 30 18 20 20 19 18 17 17 13 7 4 3 4 5 5 2 0 359 1 3 4 6 12 13 2 352 358 2 337 288 261 249 244 236 223 219 223 223 221 203 192 193 189 181 178 172 167 166 167
92 54 60 93 110 161 168 186 216 121 78 74 32 20 14 359 3 70 97 94 140 122 40 39 131 119 85 64 60 54 54 53 40 34 36 35 39 33 23 20 19 21 23 20 19 14 9 5 0 1 4 5 4 2 0 0 0 0 2 9 15 11 2 5 3 300 276 261 251 244 234 224 219 219 219 214 196 189 187 180 175 173 172 170 167 165
93 47 25 61 71 90 112 86 70 80 81 83 66 38 27 22 26 53 69 113 144 119 74 70 105 101 78 58 60 54 55 58 44 33 36 36 36 36 32 26 22 22 23 21 21 17 12 8 1 0 2 3 4 4 2 2 2 1 4 9 13 13 9 10 360 302 282 270 262 255 236 222 215 210 208 201 189 182 178 175 174 171 170 173 172 168
104 67 9 67 74 75 81 79 81 86 78 66 63 53 41 39 43 53 52 36 94 112 140 126 100 91 87 68 59 54 55 60 53 41 41 43 41 38 36 36 30 24 21 20 21 18 14 10 4 3 3 2 4 4 3 3 2 1 5 10 13 14 11 13 9 344 312 282 270 264 249 226 213 208 200 190 181 175 175 177 173 168 171 178 176 170
98 63 39 89 87 80 79 81 86 89 81 61 52 51 52 52 49 50 50 53 69 79 96 104 95 84 77 71 66 62 61 65 63 52 46 44 42 38 38 40 38 30 25 21 18 16 13 11 9 9 8 6 5 5 5 3 1 1 5 7 9 12 12 15 16 9 356 319 283 267 255 234 217 212 197 184 178 172 173 178 171 167 176 182 174 166
82 133 199 98 85 79 80 85 87 89 84 68 46 34 43 51 43 37 34 42 65 80 87 92 93 86 67 69 74 68 65 69 66 57 51 43 36 36 36 36 35 33 30 24 19 17 13 11 12 12 12 10 7 7 7 3 2 6 9 7 7 9 12 17 20 19 16 5 326 271 254 234 216 210 191 179 178 172 170 175 171 169 174 170 162 160
79 138 180 91 89 109 100 100 102 96 85 67 43 30 38 50 50 41 31 25 48 97 102 89 85 94 97 86 80 70 66 67 63 58 57 49 39 37 35 30 27 25 24 25 23 20 17 13 12 11 9 9 8 9 9 7 8 12 11 9 11 13 16 20 22 22 21 19 13 311 257 227 205 201 185 172 172 170 173 176 170 165 162 154 153 153
100 123 132 107 106 131 154 143 109 84 78 55 19 24 62 85 86 65 41 32 35 55 91 82 85 106 113 100 83 72 69 67 63 58 57 55 48 42 34 27 22 15 13 19 24 24 21 17 14 11 8 8 9 10 13 16 18 18 16 16 19 21 23 26 26 25 23 21 24 19 321 206 188 187 180 169 167 166 169 169 162 159 154 148 148 148
94 118 140 136 101 136 179 198 22 41 73 28 330 354 99 107 94 78 51 40 50 63 77 84 92 98 97 95 87 78 71 67 63 59 56 56 52 42 33 26 20 16 12 13 19 21 18 19 19 17 14 12 12 14 20 25 26 25 27 29 30 30 29 29 29 29 27 24 26 30 31 91 166 172 167 164 164 159 156 156 153 151 148 145 145 143
83 91 125 115 91 129 162 125 67 66 113 113 32 70 96 103 95 86 68 50 58 80 94 97 103 110 107 102 93 84 80 75 69 63 58 54 51 46 41 31 23 26 23 15 14 14 14 15 16 17 17 15 15 17 23 27 27 30 34 35 35 35 33 32 32 32 32 29 28 32 35 43 88 142 147 149 153 150 145 146 145 143 141 140 140 139
105 95 95 80 80 110 97 52 101 131 128 123 103 91 102 104 89 79 64 44 38 51 95 115 122 126 122 115 106 99 98 90 72 58 50 48 49 50 47 37 29 34 34 30 27 24 22 21 18 18 19 19 20 23 24 26 28 32 36 37 38 37 36 36 35 32 33 33 33 34 35 39 48 76 119 132 137 137 135 136 138 138 137 135 132 132
101 108 98 61 53 106 102 68 94 121 136 149 147 87 92 62 296 94 84 59 27 14 50 123 131 139 141 132 129 130 118 94 70 46 31 28 31 36 38 38 40 42 41 40 41 41 41 38 34 31 28 26 27 27 27 28 30 35 37 38 38 37 37 37 35 33 33 35 38 40 39 41 43 42 80 114 121 122 124 126 128 130 133 133 128 126
71 99 131 109 54 88 111 108 116 148 176 165 169 329 357 337 279 133 107 92 31 4 19 111 124 140 155 157 163 168 127 69 63 48 28 23 21 28 37 40 44 47 43 39 40 41 42 43 42 39 37 35 32 30 31 32 33 37 39 38 37 36 36 36 33 32 33 34 39 47 47 46 43 36 53 93 107 111 115 118 117 118 123 126 124 122
48 48 97 101 91 109 118 121 142 182 169 132 154 305 332 332 285 143 111 112 62 2 20 96 107 118 146 172 197 198 163 89 92 73 40 29 24 29 36 39 42 46 45 43 41 39 38 41 43 43 42 39 35 33 35 35 37 40 40 37 36 36 36 35 33 33 36 36 41 51 57 55 49 39 43 70 91 101 106 109 110 111 114 117 117 116
28 16 53 82 101 110 105 108 114 123 148 139 264 299 318 326 284 161 161 154 129 34 40 85 95 91 120 148 163 129 117 122 127 108 67 52 40 35 35 35 35 35 34 35 37 37 38 40 42 42 41 39 38 40 40 39 40 41 38 37 38 35 33 35 39 42 44 47 49 53 60 63 58 48 44 54 71 86 96 102 105 108 109 111 112 112
20 13 49 89 96 81 87 107 99 48 218 232 282 293 306 325 142 162 184 135 114 89 75 84 85 75 84 94 93 86 80 90 108 109 83 66 51 40 38 39 41 39 35 34 34 34 35 36 37 39 38 37 40 44 45 45 44 42 39 39 38 35 33 37 45 49 50 53 55 57 59 63 63 55 49 53 63 74 84 93 99 102 102 104 108 109
25 15 24 66 97 92 92 97 88 77 90 303 297 300 319 44 169 159 106 100 99 93 91 94 93 89 88 89 94 99 99 97 98 96 82 72 63 48 40 38 38 38 37 39 38 36 33 32 33 34 33 35 39 43 47 50 49 46 42 40 38 40 42 44 46 49 52 54 56 58 59 61 63 60 55 55 61 67 74 82 90 95 97 99 105 107
85 90 62 58 87 96 80 70 97 142 315 319 297 303 348 62 143 125 102 95 89 86 89 88 85 88 93 96 98 102 106 104 100 100 97 86 73 57 47 42 39 37 38 39 38 35 33 31 29 29 30 31 36 42 47 51 52 50 46 42 41 45 49 49 48 48 50 53 55 58 59 59 61 62 61 60 60 63 66 71 78 87 95 100 102 104
354 129 146 163 280 94 98 90 106 61 336 354 76 104 62 82 114 118 109 102 93 91 95 91 87 88 95 101 102 101 103 106 106 105 99 83 69 60 52 47 43 41 41 41 40 37 35 30 25 26 29 29 30 35 43 49 51 50 47 45 46 47 49 50 50 49 48 48 52 56 59 60 59 61 64 65 64 64 63 64 69 79 92 104 106 103
31 97 111 94 68 76 89 96 93 71 43 54 78 95 97 96 96 96 100 103 103 104 104 101 100 96 95 102 104 101 101 103 101 100 97 88 77 66 59 56 53 49 44 42 40 37 33 29 25 24 25 24 22 24 30 37 44 46 44 44 46 48 50 51 52 51 49 49 50 52 55 59 59 59 62 65 69 72 69 64 63 70 83 98 109 108
109 105 86 91 101 87 71 76 94 91 81 78 82 90 96 96 94 93 97 100 101 101 103 107 113 113 109 106 104 102 109 116 114 115 118 111 100 88 78 71 63 56 49 43 39 33 27 25 25 25 24 23 22 22 19 19 24 33 38 41 41 41 46 48 47 46 47 51 56 56 55 56 57 58 58 60 66 76 81 78 72 72 78 88 100 107
40 55 71 109 133 110 82 96 108 102 103 103 99 98 97 97 99 102 102 104 104 101 100 101 102 103 103 105 109 114 123 129 128 128 135 135 133 132 116 86 61 54 53 44 37 34 28 23 21 21 21 24 27 29 27 22 19 18 21 33 41 40 39 41 41 40 40 46 57 65 65 63 62 62 60 58 59 65 71 76 76 75 78 84 94 107
99 88 90 95 97 91 107 125 120 104 107 110 104 105 108 109 114 115 112 115 117 116 119 120 120 121 122 123 129 132 131 135 136 136 151 166 163 164 167 162 16 33 41 34 31 33 32 30 26 21 18 22 29 35 37 33 28 26 25 33 43 46 43 38 34 36 38 39 46 64 74 75 74 73 72 69 67 63 61 62 64 66 71 81 91 102
128 113 108 107 102 95 107 124 118 99 90 87 94 110 120 124 126 122 115 116 120 120 125 128 132 139 143 144 145 140 138 156 163 159 169 188 187 191 224 256 276 296 319 347 17 27 29 32 35 29 21 19 27 37 41 35 30 32 39 42 39 39 40 36 30 29 30 33 37 46 68 83 84 85 85 85 83 81 77 74 71 70 73 81 90 98
100 104 114 119 118 122 143 153 146 127 117 124 132 133 133 133 128 123 121 123 128 133 134 129 126 134 145 155 155 147 149 178 180 172 180 198 203 204 223 249 272 283 285 290 301 306 325 5 22 25 21 15 20 32 37 32 25 26 31 33 33 31 29 27 25 24 23 29 41 50 58 88 96 94 96 98 97 96 94 90 88 88 87 88 94 101
116 136 141 128 123 139 155 161 155 129 129 148 153 145 141 140 134 134 141 144 147 153 149 139 131 138 163 180 174 163 165 183 188 187 196 207 210 210 217 234 257 273 277 278 284 287 288 298 319 339 358 3 11 23 25 19 19 22 22 23 28 30 25 20 22 30 32 33 45 60 68 75 96 106 105 106 108 109 107 103 99 95 94 94 95 97
Height
755 764 770 769 769 768 767 768 768 767 769 772 774 776 773 773 770 760 752 744 739 749 755 752 752 752 749 746 745 744 741 745 752 754 755 754 754 754 755 755 756 756 756 756 758 760 762 764 766 767 768 767 767 767 769 771 774 777 781 784 787 789 791 794 797 800 799 798 799 800 801 802 804 807 808 809 811 813 814 814 816 817 818 820 821 822
758 770 770 764 764 763 763 764 765 766 769 772 775 777 775 772 767 757 750 745 738 746 756 753 753 754 749 745 743 741 740 743 747 752 755 755 754 753 753 753 754 756 756 756 758 759 761 762 763 765 766 766 766 768 770 772 774 777 780 783 786 787 790 793 794 795 796 796 797 799 800 802 805 807 809 809 811 812 813 814 815 816 817 818 820 820
768 771 764 759 761 762 762 763 765 768 770 773 775 778 778 770 764 756 748 746 741 745 756 756 756 755 749 744 740 738 741 743 743 746 748 750 752 752 751 751 754 756 757 757 757 758 759 760 761 763 765 766 767 768 770 771 774 777 781 783 785 787 789 791 792 793 795 796 797 799 800 802 803 805 807 808 811 812 813 813 814 815 815 816 818 819
774 765 755 755 759 762 763 762 765 770 770 773 775 778 775 767 767 764 754 750 745 748 754 754 755 755 750 748 743 740 745 747 746 746 745 746 748 749 747 748 751 754 756 757 757 758 758 758 760 762 763 765 766 767 768 771 774 777 781 783 784 786 788 790 791 793 795 796 799 801 802 802 802 803 804 806 810 812 812 812 813 814 814 815 816 818
766 753 748 753 757 760 762 763 766 771 773 771 771 771 767 763 764 764 759 754 750 751 750 752 762 762 755 755 751 745 748 752 752 750 748 748 748 749 750 750 752 754 754 756 757 758 757 757 758 760 762 765 766 767 769 772 775 777 780 782 784 785 787 788 789 791 794 797 800 801 802 803 803 804 804 805 808 810 810 810 811 812 813 814 815 817
760 748 746 752 756 759 762 764 764 769 774 772 766 761 757 757 758 758 760 761 764 765 754 755 777 779 762 758 758 754 757 760 758 757 756 755 752 751 752 752 754 756 756 757 758 758 758 758 759 760 762 764 765 767 770 774 776 778 780 782 783 784 785 786 788 789 791 794 796 797 799 800 801 802 802 803 805 806 807 808 810 812 813 814 815 816
752 744 744 750 754 757 762 764 760 763 773 772 760 751 750 752 755 757 761 766 774 775 762 758 778 787 771 760 763 764 766 768 765 764 763 762 760 757 754 752 752 754 755 756 758 758 758 759 760 761 762 763 765 768 771 774 777 779 780 781 782 783 784 785 787 788 789 791 793 794 795 796 797 799 799 800 803 804 806 808 809 811 812 813 814 815
744 744 746 749 753 758 763 763 756 756 768 767 752 746 749 750 754 757 762 771 772 770 768 762 768 782 779 772 774 771 772 776 774 771 768 765 766 764 759 756 753 753 754 755 758 758 759 761 763 765 766 766 768 770 771 772 773 775 777 779 781 781 782 784 786 787 788 789 790 791 793 795 795 796 796 799 801 803 805 808 809 810 811 812 813 814
739 744 746 747 754 760 759 753 747 749 758 754 743 744 747 747 752 753 759 770 770 771 778 770 765 780 787 785 782 776 778 787 785 780 776 771 771 769 765 762 760 759 760 761 763 764 765 766 768 770 770 770 771 772 772 771 771 771 770 771 774 777 779 781 784 785 786 787 788 789 791 793 794 795 796 798 799 801 804 807 808 809 810 811 812 813
737 737 737 741 751 754 748 742 741 744 747 743 739 744 746 749 753 753 758 764 766 776 783 774 767 779 795 798 791 786 790 795 792 788 784 780 778 775 772 769 767 767 767 768 770 771 772 771 771 772 772 772 772 771 772 772 771 769 767 766 767 771 775 777 780 781 783 784 786 788 789 791 793 794 796 797 798 800 802 805 807 808 809 810 811 812
735 730 730 735 739 739 736 736 736 736 737 737 741 747 752 757 756 758 764 763 771 785 781 771 766 773 797 808 799 796 797 795 794 793 790 786 784 781 778 776 774 773 773 773 774 775 776 775 774 773 773 774 774 773 772 772 773 773 773 773 771 771 774 776 778 779 780 782 784 785 787 789 791 793 796 796 796 798 800 802 804 806 807 808 810 811
736 734 733 728 726 727 731 735 735 732 733 738 746 753 761 768 765 768 773 771 785 795 779 768 766 774 801 813 804 801 799 795 795 796 795 792 789 786 783 781 780 779 778 777 778 778 778 778 777 776 776 776 776 776 775 775 777 777 776 777 775 773 774 776 778 780 781 782 783 785 786 788 790 792 794 795 795 796 797 799 802 804 806 808 810 811
740 737 732 726 723 723 730 739 740 736 737 744 752 760 771 781 782 784 787 786 792 789 776 770 770 785 809 810 804 805 802 799 797 796 797 796 794 791 787 785 785 783 782 782 782 782 782 782 781 780 779 779 778 777 779 781 778 775 775 777 776 774 774 775 778 780 782 783 784 785 786 787 789 790 793 794 794 795 796 798 800 802 805 807 809 810
748 739 732 730 728 722 726 741 749 747 745 749 755 761 773 786 794 799 799 799 795 782 775 771 771 793 812 806 804 808 805 803 800 798 799 797 796 794 789 787 785 785 786 786 786 786 785 785 784 782 781 781 780 778 780 780 774 773 778 780 780 778 777 776 777 779 781 783 785 786 787 788 789 791 794 795 795 795 796 797 799 801 803 805 807 809
758 753 737 732 732 725 724 732 739 743 745 748 750 754 764 774 786 795 794 794 793 784 778 774 778 799 812 808 806 806 804 804 802 801 799 797 797 794 790 788 786 786 787 787 788 787 787 786 785 784 783 782 782 781 781 779 775 778 783 784 784 783 781 779 778 778 780 783 785 787 788 789 791 793 796 797 797 796 797 798 799 801 802 804 806 807
757 755 733 725 726 723 726 728 727 737 747 748 748 755 761 759 765 780 785 784 786 787 784 786 795 802 804 804 804 803 805 805 803 803 801 800 799 796 794 794 792 792 791 790 791 790 789 788 786 785 785 784 785 785 785 782 780 781 782 783 784 784 784 783 782 782 783 785 788 789 789 790 792 793 794 796 797 797 797 798 799 800 802 803 805 807
754 750 728 724 728 722 725 728 725 735 747 750 753 755 752 746 751 771 786 786 786 790 790 796 805 805 802 804 804 804 807 807 805 805 805 805 802 799 799 799 798 798 797 797 796 796 794 792 790 788 786 785 785 785 786 784 781 779 779 780 781 783 784 785 784 783 784 786 789 791 792 792 792 792 791 793 795 795 795 796 797 798 800 802 804 805
748 749 731 724 732 725 720 724 724 727 735 747 755 750 745 749 752 762 781 793 795 796 795 801 810 810 809 809 808 808 810 810 809 807 807 807 805 804 804 803 803 803 802 801 800 799 798 796 795 791 788 786 785 784 784 783 780 777 776 777 778 780 782 783 783 782 781 781 783 787 790 791 791 790 790 790 791 791 792 792 794 796 798 800 802 804
741 752 738 724 729 725 719 728 735 731 728 736 742 737 743 760 766 767 777 790 796 798 802 809 813 814 815 813 812 813 813 812 810 808 808 808 807 808 808 807 807 806 804 803 801 800 799 798 797 794 791 788 786 785 784 783 781 777 776 775 776 779 780 781 782 780 778 776 776 780 785 788 789 788 788 788 788 788 787 788 789 791 794 797 800 802
737 751 747 730 725 725 726 735 744 743 735 733 736 737 742 753 761 766 770 777 785 793 803 811 813 816 817 814 812 814 813 811 810 810 810 810 811 811 811 811 811 809 808 806 803 801 799 799 799 796 793 790 788 787 786 785 783 780 777 776 776 779 781 781 781 780 779 778 778 780 782 784 785 785 786 787 786 785 785 786 786 787 790 794 797 800
738 750 752 738 729 736 746 745 743 744 741 741 748 753 753 750 751 759 766 768 770 781 796 806 815 820 816 810 811 812 811 810 811 812 812 813 813 814 814 814 813 813 812 809 805 802 801 800 800 798 795 792 790 790 788 788 786 783 780 778 778 779 781 781 781 781 781 780 779 780 780 781 782 782 783 783 783 786 789 791 790 788 789 791 794 798
741 748 751 746 745 756 760 750 743 744 745 749 757 764 765 759 756 763 772 771 767 777 790 797 810 820 814 809 811 812 812 813 813 813 814 816 817 818 818 817 815 815 814 812 808 804 803 802 801 798 794 793 792 792 791 790 788 786 784 782 781 781 781 781 781 780 780 779 778 778 777 778 779 779 780 781 783 787 791 793 794 792 789 789 793 796
740 746 749 752 757 761 756 748 748 749 749 753 761 766 768 764 762 766 773 774 775 786 792 794 808 819 814 810 813 815 817 818 819 817 817 819 820 821 822 820 818 816 814 813 810 805 803 802 801 798 795 794 794 793 793 791 790 788 786 784 782 781 781 780 780 780 779 779 778 777 777 777 777 777 777 779 782 787 790 792 795 794 789 789 792 795
741 748 752 755 759 759 752 748 749 750 752 759 767 771 770 769 767 767 770 771 778 790 791 794 811 819 814 813 816 818 820 821 823 823 822 823 824 825 825 823 820 818 816 813 809 803 800 797 797 797 795 796 795 794 793 793 792 790 788 785 783 781 780 779 779 778 777 778 778 778 778 777 776 775 776 779 782 786 790 793 796 796 790 789 792 795
745 755 755 757 765 767 763 759 758 761 764 769 776 778 774 771 767 767 770 769 778 793 791 791 809 819 816 818 820 820 823 825 827 827 826 827 828 828 827 825 823 821 818 813 808 804 800 798 798 798 798 797 796 795 794 793 793 792 790 787 784 781 780 779 779 777 775 775 777 778 778 777 776 775 777 780 782 785 789 791 795 796 792 790 792 795
749 762 760 757 765 772 775 774 773 775 776 777 783 783 779 776 771 768 771 769 779 798 799 795 807 817 817 821 824 825 827 829 830 830 830 830 831 830 828 826 825 823 820 815 811 808 806 803 803 802 802 801 799 797 795 794 793 792 791 789 786 783 780 779 779 777 773 772 773 775 776 775 775 775 777 780 781 782 786 788 791 795 794 792 792 795
753 767 767 765 769 773 778 780 778 779 783 787 791 789 786 785 779 772 772 774 783 799 806 803 805 812 820 824 828 831 831 832 833 833 833 833 832 832 829 826 825 823 821 819 816 814 812 809 807 806 805 805 803 801 798 795 793 791 790 788 785 783 781 780 779 776 772 769 769 772 774 773 774 774 775 778 779 781 784 786 788 792 795 796 794 795
756 769 773 776 778 777 780 782 780 783 789 793 796 796 794 791 787 782 782 786 788 793 804 808 806 814 827 831 833 836 835 835 837 836 836 836 835 834 832 829 827 824 823 822 821 820 818 816 814 811 808 807 805 803 800 797 795 792 790 788 785 782 780 779 778 776 774 771 769 770 773 773 772 772 773 776 778 779 782 784 786 789 795 799 798 796
759 772 776 779 782 781 782 784 785 789 795 799 800 802 802 799 797 797 797 798 795 791 799 809 814 822 832 836 838 840 838 839 839 838 838 837 836 836 835 833 831 828 827 826 825 824 823 822 820 817 814 811 808 806 803 800 797 794 792 789 786 784 781 780 779 777 776 773 770 768 770 771 771 772 772 774 776 778 781 784 786 789 795 800 798 796
760 777 780 780 785 787 786 788 790 792 799 804 806 806 807 807 806 806 805 804 803 803 808 815 822 830 837 840 841 841 840 841 841 840 839 838 837 837 836 836 835 833 831 830 828 827 826 825 824 822 819 816 812 810 807 804 801 797 794 791 789 786 784 782 780 778 777 775 772 768 768 769 769 770 771 771 773 776 780 785 786 788 794 797 795 795
760 777 781 780 791 797 793 793 796 799 804 810 813 812 811 811 812 815 815 812 811 815 821 823 829 837 841 841 842 842 842 842 842 843 842 840 840 839 838 838 837 836 834 833 831 829 827 825 825 823 822 820 817 814 811 808 805 801 798 795 791 789 786 784 782 780 778 775 772 769 768 768 768 769 770 770 772 775 779 784 785 788 793 793 792 793
759 774 779 780 793 804 801 799 801 799 798 806 816 820 819 818 820 823 825 822 818 819 822 823 829 838 842 843 843 843 843 844 845 845 845 844 844 843 842 842 840 839 837 835 833 831 829 827 825 824 823 822 820 818 815 813 809 805 802 799 795 792 789 786 784 781 779 776 773 770 768 768 768 769 769 770 772 775 778 782 784 787 791 790 790 792
759 771 778 780 791 803 804 802 800 792 792 806 820 824 824 825 826 827 829 829 826 825 826 828 833 840 843 843 844 845 845 846 847 847 847 848 847 847 846 845 843 842 840 837 836 834 832 830 828 826 825 823 822 820 818 816 813 810 807 803 799 796 792 789 787 784 781 777 773 770 768 767 767 768 768 769 771 774 778 782 783 786 788 788 789 791
759 766 773 777 787 801 804 801 799 797 804 819 825 822 821 825 827 830 833 833 832 833 834 837 840 843 844 845 847 848 848 849 850 849 849 850 850 850 849 848 846 845 842 840 839 837 835 833 831 830 827 825 824 822 820 818 816 814 811 807 803 799 796 793 790 787 784 780 776 773 770 768 767 766 766 768 770 774 778 780 782 785 787 786 788 791
760 762 767 776 788 799 804 801 800 809 822 828 826 823 824 827 828 831 837 837 835 836 839 841 844 845 847 849 850 850 852 852 852 851 851 851 851 851 851 850 849 847 845 844 842 840 838 836 834 832 830 828 826 823 821 819 817 815 812 808 805 801 799 796 793 790 787 784 780 776 773 770 769 768 766 767 770 773 776 778 781 785 786 786 788 790
760 762 768 780 790 799 806 804 804 817 829 828 827 827 827 827 827 829 836 841 840 838 839 842 845 847 848 851 852 852 853 853 852 853 853 852 852 852 852 852 851 849 848 846 845 843 840 838 837 835 832 830 828 825 822 820 818 815 812 809 807 804 802 799 796 793 791 788 784 781 777 775 773 772 770 768 770 774 777 780 782 784 785 786 789 791
760 764 771 784 795 803 812 817 818 825 830 829 829 829 827 829 828 827 835 844 844 841 840 842 845 847 849 851 852 851 851 851 854 856 855 854 853 853 853 853 852 851 849 848 847 844 842 841 839 837 835 833 830 827 825 822 820 817 814 811 808 806 804 801 799 797 795 792 789 786 783 780 778 778 776 772 772 776 779 782 785 785 784 786 789 793
761 765 768 782 799 807 812 821 825 824 825 828 830 828 827 828 827 825 833 843 846 843 842 842 844 847 849 850 850 849 848 851 857 859 857 856 855 854 854 854 852 851 850 849 848 846 844 842 840 839 837 834 832 830 827 825 822 819 815 813 811 809 807 804 803 801 799 797 794 791 788 786 784 785 783 777 776 779 781 784 787 787 786 787 791 794
766 769 769 779 798 805 806 814 819 820 823 829 831 830 828 826 825 825 830 840 847 847 843 843 846 847 848 848 849 848 849 854 860 861 859 858 857 856 856 854 853 852 850 849 848 847 846 844 842 841 839 836 834 832 829 827 824 821 818 816 814 813 810 808 807 805 803 802 799 796 792 790 790 791 789 784 781 782 783 786 789 790 791 792 794 796
772 775 776 784 796 802 806 816 822 824 828 832 831 830 827 825 826 826 825 834 848 849 845 846 848 848 848 848 848 848 850 854 859 861 860 859 859 858 857 855 854 853 852 851 850 849 848 846 844 843 841 839 837 834 832 830 826 823 821 820 818 816 814 813 812 810 808 805 803 800 797 794 795 796 794 789 787 786 787 789 792 794 796 797 797 799
789 789 789 795 804 809 814 823 828 830 831 832 830 830 827 825 826 827 828 839 849 849 847 849 850 850 849 848 849 852 854 856 858 860 860 860 860 859 858 857 856 854 853 853 851 850 849 848 846 845 843 842 840 837 835 832 829 826 825 823 821 819 818 817 815 813 811 809 806 804 801 799 799 800 798 795 793 791 792 794 796 798 799 801 801 801
800 801 798 801 808 813 819 825 827 829 831 831 830 829 827 825 828 834 840 847 849 849 850 851 851 851 851 850 852 855 857 858 859 860 860 861 861 861 860 858 857 856 855 854 853 851 850 849 848 847 845 844 842 839 837 835 831 829 828 826 824 823 822 820 818 816 814 812 809 807 805 803 802 802 802 801 799 798 798 799 801 801 802 805 805 805
810 809 808 812 814 814 819 824 823 826 830 831 830 830 830 831 835 842 847 848 849 850 852 852 852 852 852 853 855 856 858 860 861 861 861 862 861 861 861 860 859 858 857 855 854 853 851 850 849 848 847 846 844 842 840 837 834 832 831 829 828 827 826 823 821 819 817 815 812 810 809 808 807 806 806 806 806 805 805 805 805 805 806 809 810 810
817 812 813 822 824 822 825 829 828 832 834 830 829 834 837 838 840 843 846 848 851 852 852 853 854 854 853 855 856 858 860 861 862 862 862 862 862 862 861 861 860 859 858 856 855 854 853 852 851 850 849 848 846 844 842 839 838 836 834 833 832 830 829 827 825 823 821 819 817 815 814 813 812 811 811 811 811 811 810 810 811 810 811 813 815 815
818 814 811 820 827 828 831 834 835 837 837 833 833 837 840 841 842 843 846 849 851 852 852 854 855 855 856 856 857 859 861 861 862 863 863 863 863 862 862 861 860 860 859 857 856 855 854 853 853 852 851 849 847 845 843 842 840 839 837 836 835 833 832 830 828 826 825 823 821 820 818 817 816 816 815 815 815 814 814 815 815 815 815 816 818 819
817 814 812 819 827 829 832 837 838 838 839 838 838 839 840 841 844 845 847 849 850 851 853 854 855 856 856 857 858 859 861 861 862 863 862 863 863 862 862 862 861 860 859 858 857 856 855 855 855 853 852 851 849 847 845 843 842 841 840 839 838 836 834 833 831 829 828 827 825 824 822 821 820 820 819 819 818 817 817 818 818 818 818 819 819 820
815 814 815 822 826 827 835 842 841 839 841 841 840 841 841 842 845 847 848 849 850 852 853 855 856 857 857 857 858 860 860 861 861 862 862 862 862 862 862 861 860 860 859 858 858 857 857 857 856 855 853 852 850 848 846 845 844 843 842 841 840 838 837 835 834 832 831 830 829 828 826 825 824 823 823 822 821 820 820 820 820 821 821 821 822 821
815 815 819 824 827 830 837 842 840 840 841 841 840 842 843 844 847 848 848 849 850 852 854 855 856 857 858 858 859 859 860 861 861 862 862 862 862 862 862 861 861 860 859 859 859 858 858 857 857 856 855 853 851 850 848 847 846 845 844 843 841 840 839 837 836 835 834 833 832 831 830 828 827 827 826 826 825 824 823 823 824 824 824 825 825 825
812 816 820 825 831 837 842 842 841 843 845 844 843 844 845 846 848 849 850 851 852 853 855 856 856 857 858 858 858 859 860 861 861 862 862 862 862 862 862 861 861 860 860 860 859 858 858 858 857 856 855 854 852 851 850 848 848 847 845 844 843 842 841 839 838 837 836 835 834 833 832 831 830 830 829 829 828 828 827 827 827 828 828 828 828 829
814 821 825 827 833 840 842 840 839 841 846 847 846 846 847 848 849 850 852 853 854 855 856 857 858 859 858 858 859 859 860 861 861 862 862 862 862 862 862 861 861 861 861 860 860 859 859 858 857 856 855 854 853 852 851 850 849 848 847 846 845 843 842 841 840 839 838 836 835 835 834 833 833 832 831 831 831 831 831 830 830 830 830 830 831 831
816 822 824 824 829 834 835 835 835 837 842 846 846 846 848 848 849 851 853 854 855 856 856 858 859 860 859 859 859 859 860 861 861 862 862 862 862 862 862 862 861 861 861 861 860 860 859 858 858 856 855 854 853 852 852 851 850 849 848 847 846 845 844 843 842 840 839 838 837 836 835 835 834 834 834 833 833 833 833 833 833 833 833 833 833 833